Location: Avon
(37.7514°N, 90.2235°W)
Time: 11:41:24
(UTC+00:00)

A-11 Canister half - Pass Details

Date: 10 November 2025
Orbit: 1526 x 1681 km, 47.3° (Epoch: 05 December)

Event Time Altitude Azimuth Distance (km) Brightness Sun altitude
Rises 01:37:23 0° 239° (WSW) 4,877 12.4 -32.5°
Reaches altitude 10° 01:40:33 10° 240° (WSW) 3,874 11.7 -33.1°
Maximum altitude 01:50:28 84° 329° (NNW) 1,614 8.9 -35.1°
Enters shadow 01:51:30 74° 35° (NE) 1,651 8.9 -35.3°
